[[[{"header":{"parameterUnit":"kt","parameterCategory":2,"dx":1,"dy":1,"la1":30.253999710083008,"la2":30.299108505249023,"lo1":-89.0895004272461,"lo2":-89.04439544677734,"nx":28,"ny":28,"refTime":"2022-10-11T21:00:00:Z","depth":0,"parameterNumber":1,"parameterNumberName":"U-component_of_WINDS"},"data":[-6.1284,-6.1423,-6.1411,-6.1565,-6.1579,-6.1683,-6.1716,-6.1757,-6.1786,-6.1908,-6.1975,-6.1977,-6.2001,-6.2079,-6.2152,-6.2151,-6.2184,-6.2243,-6.2232,-6.1979,-6.1943,-6.1909,-6.1876,-6.2249,-6.225,-6.2497,-6.2499,-6.2501,-6.1101,-6.1117,-6.1194,-6.1261,-6.1327,-6.1263,-6.131,-6.137,-6.1464,-6.1501,-6.1566,-6.1672,-6.1754,-6.1758,-6.1835,-6.1901,-6.1876,-6.1923,-6.1919,-6.1924,-6.1653,-6.1617,-6.1942,-6.1942,-6.1942,-6.1942,-6.1942,-6.1942,-6.0765,-6.0849,-6.0881,-6.0965,-6.0994,-6.1039,-6.1117,-6.1116,-6.1192,-6.127,-6.1239,-6.1345,-6.1379,-6.1465,-6.149,-6.1573,-6.1518,-6.1566,-6.1579,-6.1592,-6.161,-6.1259,-6.1585,-6.1584,-6.1583,-6.1582,-6.1581,0,-6.0516,-6.0499,-6.0572,-6.0642,-6.0701,-6.0754,-6.0799,-6.0847,-6.0807,-6.0871,-6.0962,-6.1013,-6.1113,-6.1198,-6.1266,-6.1282,-6.1223,-6.1215,-6.1248,-6.1267,-6.1275,-6.1275,-6.0835,-6.1206,-6.1203,-6.12,-6.1198,-6.1197,-6.0178,-6.0277,-6.0303,-6.0356,-6.0378,-6.0464,-6.0512,-6.0469,-6.0522,-6.0572,-6.0648,-6.0732,-6.0797,-6.0946,-6.0944,-6.1019,-6.0991,-6.1135,-6.1002,-6.1015,-6.0997,-6.0992,-6.1003,-6.1162,-6.1167,-6.117,-6.1173,0,-5.999,-5.9967,-6.0115,-6.0131,-6.0138,-6.0244,-6.0258,-6.034,-6.0329,-6.0441,-6.0464,-6.0448,-6.0539,-6.0513,-6.0611,-6.0595,-6.0772,-6.0741,-6.076,-6.0753,-6.0881,-6.0871,-6.1296,-6.135,-6.0959,-6.0963,-6.0966,0,-5.9695,-5.9825,-5.9784,-5.9871,-6.0015,-5.9967,-6.0111,-6.0116,-6.0144,-6.0231,-6.0158,-6.0241,-6.0194,-6.0274,-6.0251,-6.039,-6.0407,-6.0404,-6.0397,-6.0413,-6.0414,-6.0443,-6.0426,-6.0373,-6.0371,-6.0369,-6.0367,0,-5.9405,-5.9534,-5.9675,-5.9701,-5.9731,-5.9798,-5.9814,-5.9844,-5.9892,-5.9949,-5.998,-6.005,-6.009,-6.0145,-6.0115,-6.0026,-6.0283,-6.0155,-6.028,-6.0282,-6.0341,-6.0338,-6.0718,-6.0365,-6.0364,-6.0363,-6.0362,0,-5.9163,-5.9221,-5.9428,-5.9451,-5.9487,-5.9579,-5.9645,-5.9718,-5.9755,-5.9746,-5.979,-5.9739,-5.9856,-5.9731,-5.9892,-5.9786,-5.9829,-5.9836,-5.9844,-5.9856,-5.9718,-5.9939,-6.0301,-6.0339,-5.9863,-5.9859,-5.9856,0,-5.8839,-5.904,-5.9,-5.9198,-5.9287,-5.9199,-5.9301,-5.9335,-5.9331,-5.9406,-5.9401,-5.9488,-5.9389,-5.9413,-5.9495,-5.9495,-5.9633,-5.9475,-5.9588,-5.9593,-5.9584,-5.9916,-5.9978,-6.0224,-5.9802,-5.9807,-5.9811,0,-5.8584,-5.8618,-5.8656,-5.8684,-5.8721,-5.8795,-5.8911,-5.8986,-5.9039,-5.9084,-5.9182,-5.9302,-5.9233,-5.9272,-5.9238,-5.9326,-5.9538,-5.924,-5.924,-5.9297,-5.9771,-5.983,-5.9871,-5.9495,-5.9502,-5.9507,-5.9769,0,-5.823,-5.8326,-5.8426,-5.8489,-5.8541,-5.8662,-5.8633,-5.8692,-5.8653,-5.8646,-5.8787,-5.8808,-5.8885,-5.8924,-5.8887,-5.9095,-5.9057,-5.8982,-5.886,-5.9077,-5.9163,-5.9198,-5.8735,-5.8731,-5.8728,-5.8725,0,0,-5.7927,-5.8064,-5.8016,-5.8126,-5.8168,-5.8074,-5.8207,-5.8236,-5.8298,-5.8329,-5.826,-5.8434,-5.8454,-5.863,-5.8695,-5.8725,-5.8761,-5.8686,-5.8974,-5.9001,-5.9027,-5.9119,-5.9156,-5.872,-5.8718,-5.8717,-5.8716,0,-5.7791,-5.7812,-5.7942,-5.797,-5.8009,-5.7994,-5.8026,-5.8048,-5.805,-5.8187,-5.8109,-5.819,-5.8329,-5.8362,-5.8397,-5.8663,-5.8601,-5.8688,-5.8842,-5.8942,-5.8975,-5.9003,-5.91,-5.9135,-5.8709,-5.8709,-5.8709,0,-5.7538,-5.7554,-5.7613,-5.7701,-5.7726,-5.782,-5.7684,-5.7788,-5.7858,-5.775,-5.7888,-5.7897,-5.7937,-5.8105,-5.818,-5.812,-5.8457,-5.8344,-5.8363,-5.8372,-5.8468,-5.8507,-5.8541,-5.809,-5.8088,-5.8086,0,0,-5.7425,-5.7513,-5.7517,-5.7669,-5.7691,-5.767,-5.7716,-5.7682,-5.7719,-5.7734,-5.7743,-5.7783,-5.7863,-5.7917,-5.7991,-5.8179,-5.8185,-5.8269,-5.8298,-5.8322,-5.8344,-5.8446,-5.8485,-5.8078,-5.8078,-5.8078,0,0,-5.7371,-5.7381,-5.7334,-5.7507,-5.7545,-5.7559,-5.7654,-5.7598,-5.7661,-5.7644,-5.7591,-5.76,-5.7756,-5.7767,-5.7668,-5.7947,-5.7827,-5.785,-5.7935,-5.7971,-5.8,-5.7995,-5.7533,0,0,0,0,0,-5.7218,-5.7379,-5.7337,-5.7362,-5.7472,-5.7583,-5.7596,-5.7556,-5.7472,-5.7549,-5.7547,-5.7476,-5.7703,-5.7614,-5.7639,-5.7752,-5.7979,-5.7997,-5.8013,-5.8166,-5.8205,-5.8237,0,0,0,0,0,0,-5.7227,-5.7257,-5.7333,-5.7354,-5.7378,-5.7576,-5.7425,-5.7419,-5.7463,-5.7448,-5.7478,-5.7477,-5.7445,-5.7598,-5.7622,-5.7729,-5.7525,-5.7986,-5.8001,-5.8014,-5.8179,-5.8211,-5.8238,0,0,0,0,0,-5.7234,-5.7258,-5.7446,-5.7351,-5.7373,-5.7358,-5.7419,-5.7412,-5.7446,-5.7444,-5.7439,-5.7412,-5.7449,-5.7467,-5.7612,-5.7719,-5.7508,-5.7517,-5.7996,-5.8007,-5.8018,-5.8195,0,0,0,0,0,0,-5.7239,-5.7253,-5.7449,-5.7454,-5.7287,-5.7346,-5.7354,-5.7407,-5.7438,-5.7436,-5.7373,-5.7361,-5.7454,-5.7467,-5.7481,-5.7718,-5.7495,-5.7504,-5.751,-5.8005,-5.8014,-5.8022,0,0,0,0,0,0,-5.724,-5.7258,-5.7452,-5.7373,-5.7368,-5.7335,-5.7342,-5.7459,-5.744,-5.7366,-5.7356,-5.7367,-5.7434,-5.7468,-5.7478,-5.7662,-5.7484,-5.7493,-5.7499,-5.7503,-5.8012,-5.8019,0,0,0,0,0,0,-5.7247,-5.7263,-5.7371,-5.7368,-5.7364,-5.7417,-5.7438,-5.7554,-5.7371,-5.7366,-5.7353,-5.7345,-5.7437,-5.7446,-5.7477,-5.7657,-5.7661,-5.7485,-5.7491,-5.7495,-5.7498,0,0,0,0,0,0,0,-5.7253,-5.7157,-5.742,-5.7364,-5.736,-5.7501,-5.7502,-5.7504,-5.7369,-5.7362,-5.7355,-5.7349,-5.7434,-5.7444,-5.7453,-5.7653,0,0,-5.7484,-5.7488,0,0,0,0,0,0,0,0,-5.7149,-5.7155,-5.742,-5.7421,-5.7422,-5.7501,-5.7502,-5.7503,-5.7368,-5.7362,-5.7357,-5.7351,-5.7437,-5.7444,-5.7452,0,0,0,0,0,0,0,0,0,0,0,0,0,0,0,-5.742,-5.7421,0,-5.7501,-5.7502,-5.7503,-5.7367,-5.7363,-5.7358,-5.7354,-5.7439,-5.7445,-5.7452,0,0,0,0,0,0,0,0,0,0,0,0,0,0,0,0,0,0,0,0,0,0,0,0,0,0,0,0,0,0,0,0,0,0,0,0,0,0,0,0,0,0,0,0,0,0,0,0,0,0,0,0,0,0,0,0,0,0,0,0,0,0,0,0,0,0,0,0,0]}],[{"header":{"parameterUnit":"kt","parameterCategory":2,"dx":1,"dy":1,"la1":30.253999710083008,"la2":30.299108505249023,"lo1":-89.0895004272461,"lo2":-89.04439544677734,"nx":28,"ny":28,"refTime":"2022-10-11T21:00:00:Z","depth":0,"parameterNumber":2,"parameterNumberName":"V-component_of_WINDS"},"data":[-5.2369,-5.2404,-5.2388,-5.2421,-5.2412,-5.2431,-5.2433,-5.2434,-5.243,-5.2452,-5.2461,-5.2449,-5.244,-5.2448,-5.2457,-5.2452,-5.2457,-5.2481,-5.247,-5.2379,-5.2365,-5.2352,-5.2343,-5.2482,-5.2482,-5.2567,-5.2568,-5.2569,-5.2302,-5.2293,-5.2306,-5.2307,-5.2318,-5.2285,-5.2284,-5.2295,-5.2313,-5.231,-5.2319,-5.2336,-5.2349,-5.2331,-5.2341,-5.2357,-5.2342,-5.236,-5.2359,-5.2358,-5.226,-5.225,-5.2372,-5.2372,-5.2372,-5.2372,-5.2372,-5.2372,-5.2174,-5.2196,-5.2188,-5.2201,-5.2198,-5.2199,-5.2217,-5.2201,-5.2214,-5.2222,-5.22,-5.2222,-5.2215,-5.2219,-5.2217,-5.2232,-5.221,-5.2225,-5.2229,-5.2233,-5.224,-5.2119,-5.2233,-5.2233,-5.2233,-5.2232,-5.2232,0,-5.2076,-5.2061,-5.2073,-5.2079,-5.2089,-5.2092,-5.2093,-5.2104,-5.2068,-5.208,-5.2096,-5.2103,-5.2116,-5.2129,-5.2135,-5.2129,-5.2098,-5.2093,-5.2103,-5.2114,-5.2122,-5.2118,-5.1958,-5.209,-5.2088,-5.2087,-5.2087,-5.2086,-5.1947,-5.1975,-5.1958,-5.1969,-5.1965,-5.1982,-5.1989,-5.1955,-5.1964,-5.1961,-5.1982,-5.1995,-5.2004,-5.2033,-5.2015,-5.2025,-5.201,-5.2062,-5.2012,-5.202,-5.2011,-5.201,-5.2012,-5.2073,-5.2074,-5.2076,-5.2077,0,-5.1875,-5.1849,-5.1887,-5.1869,-5.1865,-5.1896,-5.188,-5.1901,-5.1884,-5.191,-5.1914,-5.1888,-5.1905,-5.1878,-5.1892,-5.1878,-5.1928,-5.1913,-5.193,-5.1925,-5.1969,-5.1966,-5.2116,-5.2133,-5.1988,-5.199,-5.1991,0,-5.1755,-5.1793,-5.1752,-5.1776,-5.1816,-5.1781,-5.1823,-5.1812,-5.1806,-5.1826,-5.1786,-5.1806,-5.1769,-5.1785,-5.1764,-5.1801,-5.1803,-5.1795,-5.1789,-5.1799,-5.18,-5.1804,-5.1797,-5.1774,-5.1774,-5.1773,-5.1772,0,-5.1646,-5.1669,-5.1707,-5.1708,-5.1693,-5.1712,-5.1706,-5.17,-5.1707,-5.1713,-5.1717,-5.1727,-5.1732,-5.174,-5.1713,-5.168,-5.1757,-5.1706,-5.1748,-5.1749,-5.1767,-5.1766,-5.1905,-5.1772,-5.1771,-5.1771,-5.1771,0,-5.1545,-5.1551,-5.1611,-5.1597,-5.1604,-5.163,-5.1636,-5.1652,-5.1648,-5.1636,-5.164,-5.161,-5.164,-5.1591,-5.1631,-5.1596,-5.1603,-5.1597,-5.16,-5.1602,-5.1548,-5.163,-5.1764,-5.1778,-5.1602,-5.1601,-5.1599,0,-5.1428,-5.1481,-5.1451,-5.1509,-5.1529,-5.1482,-5.1509,-5.1507,-5.1494,-5.1509,-5.1495,-5.1513,-5.1471,-5.1473,-5.1497,-5.1483,-5.1529,-5.1475,-5.1499,-5.15,-5.1501,-5.1625,-5.1652,-5.1738,-5.1581,-5.1583,-5.1584,0,-5.1333,-5.1315,-5.1328,-5.1327,-5.1319,-5.1337,-5.1369,-5.1379,-5.1391,-5.1394,-5.1419,-5.1445,-5.1414,-5.1418,-5.1395,-5.1421,-5.1496,-5.1385,-5.1384,-5.1406,-5.157,-5.1595,-5.1609,-5.1475,-5.1477,-5.1479,-5.157,0,-5.1187,-5.121,-5.1243,-5.1245,-5.1254,-5.1289,-5.1261,-5.1275,-5.1251,-5.1237,-5.1274,-5.1266,-5.1278,-5.1288,-5.1266,-5.1333,-5.1318,-5.1285,-5.1236,-5.1317,-5.1346,-5.1358,-5.1195,-5.1193,-5.1192,-5.1191,0,0,-5.1081,-5.1114,-5.1081,-5.1111,-5.1117,-5.1068,-5.1108,-5.1108,-5.111,-5.1115,-5.1087,-5.1123,-5.1119,-5.1167,-5.119,-5.1195,-5.1205,-5.1178,-5.1279,-5.1289,-5.1298,-5.133,-5.1342,-5.1188,-5.1188,-5.1187,-5.1187,0,-5.1021,-5.1017,-5.1057,-5.1056,-5.1052,-5.1035,-5.1045,-5.1033,-5.1026,-5.1063,-5.1022,-5.1041,-5.1072,-5.1072,-5.1076,-5.1171,-5.114,-5.1176,-5.1237,-5.1266,-5.1278,-5.1288,-5.1322,-5.1334,-5.1184,-5.1184,-5.1184,0,-5.0924,-5.0915,-5.0931,-5.0943,-5.0941,-5.0964,-5.0906,-5.0933,-5.095,-5.0896,-5.0934,-5.0926,-5.0924,-5.0974,-5.0995,-5.0971,-5.1082,-5.1042,-5.105,-5.1052,-5.1079,-5.1093,-5.1106,-5.094,-5.0939,-5.0938,0,0,-5.0876,-5.0899,-5.0879,-5.0929,-5.093,-5.0905,-5.0915,-5.0893,-5.0892,-5.0892,-5.0881,-5.0882,-5.0899,-5.0911,-5.0925,-5.0984,-5.0981,-5.1013,-5.1025,-5.1034,-5.1042,-5.1071,-5.1085,-5.0936,-5.0936,-5.0936,0,0,-5.0854,-5.0833,-5.081,-5.0864,-5.0864,-5.0849,-5.088,-5.0851,-5.0861,-5.0854,-5.0818,-5.0817,-5.0863,-5.0858,-5.0823,-5.0907,-5.0859,-5.0867,-5.091,-5.0924,-5.0935,-5.0936,-5.0763,0,0,0,0,0,-5.078,-5.0836,-5.0815,-5.082,-5.0835,-5.086,-5.0862,-5.0834,-5.08,-5.0825,-5.0811,-5.0777,-5.0831,-5.08,-5.0806,-5.0845,-5.09,-5.0906,-5.0912,-5.0981,-5.0996,-5.1008,0,0,0,0,0,0,-5.0781,-5.0787,-5.0813,-5.0801,-5.0804,-5.0858,-5.0794,-5.0788,-5.0796,-5.0789,-5.0781,-5.0777,-5.0754,-5.0795,-5.0801,-5.0838,-5.0761,-5.0902,-5.0908,-5.0913,-5.0986,-5.0998,-5.1009,0,0,0,0,0,-5.0782,-5.0787,-5.082,-5.0799,-5.0802,-5.0778,-5.0792,-5.0786,-5.0792,-5.0772,-5.0767,-5.077,-5.0755,-5.0758,-5.0799,-5.0837,-5.0757,-5.0759,-5.0906,-5.091,-5.0914,-5.0992,0,0,0,0,0,0,-5.0783,-5.0782,-5.082,-5.0819,-5.0776,-5.0774,-5.0773,-5.0785,-5.0774,-5.0769,-5.0759,-5.0754,-5.0757,-5.0759,-5.0761,-5.0838,-5.0754,-5.0756,-5.0757,-5.0909,-5.0912,-5.0915,0,0,0,0,0,0,-5.0779,-5.0783,-5.0819,-5.0792,-5.0788,-5.0771,-5.077,-5.08,-5.0774,-5.0761,-5.0756,-5.0757,-5.0754,-5.076,-5.0762,-5.081,-5.0751,-5.0753,-5.0755,-5.0756,-5.0912,-5.0914,0,0,0,0,0,0,-5.078,-5.0783,-5.0792,-5.0789,-5.0786,-5.0781,-5.0797,-5.0815,-5.075,-5.0763,-5.0744,-5.0741,-5.0756,-5.0757,-5.0762,-5.0811,-5.081,-5.0751,-5.0753,-5.0754,-5.0754,0,0,0,0,0,0,0,-5.0781,-5.077,-5.0821,-5.0787,-5.0784,-5.0817,-5.0817,-5.0817,-5.075,-5.0747,-5.0745,-5.0742,-5.074,-5.0742,-5.0744,-5.0811,0,0,-5.0751,-5.0752,0,0,0,0,0,0,0,0,-5.0769,-5.077,-5.0821,-5.0821,-5.0821,-5.0817,-5.0817,-5.0817,-5.0749,-5.0747,-5.0745,-5.0743,-5.074,-5.0742,-5.0744,0,0,0,0,0,0,0,0,0,0,0,0,0,0,0,-5.0821,-5.0821,0,-5.0817,-5.0817,-5.0817,-5.0749,-5.0747,-5.0746,-5.0744,-5.0741,-5.0742,-5.0744,0,0,0,0,0,0,0,0,0,0,0,0,0,0,0,0,0,0,0,0,0,0,0,0,0,0,0,0,0,0,0,0,0,0,0,0,0,0,0,0,0,0,0,0,0,0,0,0,0,0,0,0,0,0,0,0,0,0,0,0,0,0,0,0,0,0,0,0,0]}]]]